Current Version              Previous Version:    01  02  03  04  05  06  07  08  09  10  11  12  13  14  15  16  17  18  19  20  21  22  23  24  25  26  27  28  29  30  
   31  32  33  34  35  36  37  38  39  40  41  42  43  44  45  46  47  48  49  50  51  52  53  54  55  56  57  58  59  60  

[Printable]
910
ASUS44 KEWX 210110
RWRTX
SOUTH TEXAS REGIONAL WEATHER ROUNDUP
NATIONAL WEATHER SERVICE AUSTIN/SAN ANTONIO TX
800 PM CDT MON OCT 20 2014

NOTE: "FAIR" INDICATED FEW OR NO CLOUDS BELOW 12,000 FEET WITH NO
SIGNIFICANT WEATHER AND/OR OBSTRUCTIONS TO VISIBILITY.

* - THESE STATIONS ARE NOT NWS OR FAA STATIONS...AND ARE NOT SUBJECT
    TO NWS AND FAA QUALITY CONTROL.

TXZ171-172-183>190-210200-
TEXAS HILL COUNTRY AND EDWARDS PLATEAU

CITY           SKY/WX    TMP DP  RH WIND       PRES   REMARKS
JUNCTION       PTCLDY    71  55  56 E6        30.03R
*LLANO         PTCLDY    70  59  68 CALM      30.06R
BURNET         PTCLDY    71  57  61 CALM      30.05R
*HORSESHOE BAY PTCLDY    68  58  68 CALM      30.02S
*KERRVILLE     MOCLDY    72  59  64 E5        30.04R
*FREDERICKSBRG PTCLDY    69  57  67 CALM      30.04S
*ROCKSPRINGS   PTCLDY    70  54  56 E3        30.06R
*BOERNE STAGE  MOCLDY    70  54  56 E3        30.04R
*CASTROVILLE   MOCLDY    77  55  45 E3        30.01R
HONDO          MOCLDY    75  56  51 E7        30.01R
*UVALDE        MOCLDY    76  57  51 E5        29.99R
DEL RIO        MOCLDY    74  64  71 CALM      29.97R
LAUGHLIN AFB   MOCLDY    76  63  62 SW2       29.98R
CARRIZO SPRGS  CLOUDY    77  64  65 SE10      29.95R
$$

TXZ173-191>194-202-209-217>225-228-210200-
CENTRAL AND SOUTH CENTRAL TEXAS

CITY           SKY/WX    TMP DP  RH WIND       PRES   REMARKS
GEORGETOWN     CLEAR     73  57  56 E3        30.02R
AUSTIN/BERGSTM MOCLDY    71  60  68 E6        30.01R
AUSTIN/MABRY   MOCLDY    74  59  59 E3        30.02R
*AUSTIN/EXEC   CLOUDY    72  57  60 E3        30.02R
*LAGO VISTA    MOCLDY    71  57  62 E6        30.03S
SAN MARCOS     MOCLDY    72  54  53 E6        30.02R
NEW BRAUNFELS  MOCLDY    75  57  53 E7        29.99R
RANDOLPH AFB   MOCLDY    74  58  56 E6        30.01R
PT SAN ANTONIO MOCLDY    77  58  50 E10       29.98R
SAN ANTONIO    MOCLDY    77  58  51 E8        30.00R
STINSON FIELD  MOCLDY    77  58  51 E6        29.98R
*PLEASANTON    MOCLDY    76  59  55 CALM      29.98R
*LA GRANGE     PTCLDY    73  63  70 CALM      29.99R
*GIDDINGS      PTCLDY    70  60  71 E3        30.05R
*GONZALES      PTCLDY    75  61  60 E3        29.99R
$$

TXZ163>164-176>182-195>201-210>213-226-227-235-210200-
SOUTHEAST TEXAS

CITY           SKY/WX    TMP DP  RH WIND       PRES   REMARKS
COLLEGE STN    PTCLDY    72  60  66 NE5       30.01R
*BRYAN         PTCLDY    70  61  75 CALM      30.03R
*CALDWELL      PTCLDY    70  61  73 CALM      30.05R
*CROCKETT      PTCLDY    66  63  88 CALM      30.06S
*BRENHAM       PTCLDY    72  62  71 CALM      30.01S
HUNTSVILLE     CLEAR     68  60  75 CALM      30.03R
CONROE         CLEAR     64  61  90 CALM      30.02R
HOUSTON BUSH   PTCLDY    68  59  73 NE5       30.00R
HOUSTON HOBBY  PTCLDY    73  62  68 CALM      29.99R
*HOUSTON SW AP PTCLDY    67  60  78 CALM      30.00R
PEARLAND       PTCLDY    71  63  75 CALM      30.00S
HOUSTON HOOKS  PTCLDY    69  60  73 NE3       30.01R
ELLINGTON FLD  NOT AVBL
SUGAR LAND     PTCLDY    68  61  78 NE3       29.99S
*HOUSTON EXEC  PTCLDY    66 N/A N/A NE6       30.01R
*CLEVELAND MUN NOT AVBL
*WHARTON       MOCLDY    71  60  68 CALM      30.00R
*COLUMBUS      FAIR      71  61  70 CALM      29.99R
$$

TXZ214>216-236>238-210200-
THE UPPER TEXAS COAST

CITY           SKY/WX    TMP DP  RH WIND       PRES   REMARKS
*ORANGE        CLEAR     67  60  77 CALM      30.03R
PORT ARTHUR    CLEAR     71  58  63 N7        30.00R
GALVESTON      PTCLDY    74  66  76 NE5       30.01R
ANGLETON       MOCLDY    70  66  87 E3        29.99R
*BAY CITY        N/A     72  68  87 E6        29.98S
PALACIOS       MOCLDY    75  66  73 E9        29.98R
$$

TXZ229>234-239>247-210200-
TEXAS COASTAL BEND AND RIO GRANDE PLAINS

CITY           SKY/WX    TMP DP  RH WIND       PRES   REMARKS
VICTORIA       MOCLDY    72  64  76 NE8       29.98R
*BEEVILLE      MOCLDY    74  66  77 E3        29.97S
ROCKPORT       PTCLDY    77  70  79 E12       29.96R
*PORT ARANSAS  MOCLDY    76  69  79 E14G21    29.95S
*PORT LAVACA   MOCLDY    76  68  76 E9        29.98R
*INGLESIDE     PTCLDY    76  71  85 E8        29.95S
CORPUS CHRISTI MOCLDY    74  71  91 NE8       29.96R
CORPUS NAS     MOCLDY    75  72  90 E13       29.95R
*ROBSTOWN      NOT AVBL
ALICE          PTCLDY    73  69  87 NE5       29.96R
KINGSVILLE NAS MOCLDY    74  71  91 NE10      29.95R
COTULLA        CLOUDY    80  60  50 SE10      29.97R
*FAITH RANCH   CLOUDY    77  64  65 SE14      29.96R
LAREDO         CLOUDY    76  67  73 E10       29.98R
$$

TXZ248>255-210200-
DEEP SOUTH TEXAS

CITY           SKY/WX    TMP DP  RH WIND       PRES   REMARKS
BROWNSVILLE    PTCLDY    78  69  73 NE6       29.91R
PORT ISABEL    CLEAR     79  69  71 NE9       29.91R
*SOUTH PADRE   MOCLDY    81  72  74 E9G17     29.91S
HARLINGEN      CLEAR     75  71  87 NE8       29.91R
*HEBBRONVILLE  MOCLDY    75  65  71 NE13      29.98S
MCALLEN        PTCLDY    76  69  79 NE8       29.93R
*WESLACO       CLEAR     76  68  75 NE10      29.92R
FALFURRIAS     CLEAR     74  67  79 NE5       29.95R
EDINBURG       PTCLDY    75  69  80 NE6       29.94R
*ZAPATA        MOCLDY    78  65  64 E6G16     29.94R
$$

TXZ213>215-236>238-242>244-246-247-251-254-255-210200-
CMAN STATIONS

STATION/POSITION TIME  TEMP    WIND        PRES    WAVE
                       AIR SEA DIR/SP/G            HT/PER
                 (UTC) (F)     (DEG/KT/KT) (MB)    (FT/S)
SABINE PASS      0100   71 76                N/A
SEA RIM ST PARK  0100   72      30/  5/  6 1016.5
NORTH JETTY/GLS  0100   76 79                N/A
EAGLE POINT      0100   76 77                N/A
MORGANS POINT    0100   75                   N/A
MISSION/ARANSAS  0000           80/ 12     1015.0
PORT O`CONNOR    0000           80/ 16/ 19   N/A
PORT ARANSAS     0100   78 78   60/ 18/ 20 1014.6
MALAQUITE BEACH  0100   78 78                N/A
BAFFIN BAY       0100   78 84                N/A
PORT ISABEL      0100   81 81                N/A
$$

GMZ080-GMZ150>470-210200-
OFFSHORE BUOY REPORTS

STATION/POSITION TIME  TEMP    WIND        PRES    WAVE
                       AIR SEA DIR/SP/G            HT/PER
                 (UTC) (F)     (DEG/KT/KT) (MB)    (FT/S)
20 E GALVESTON   0100   76 78   70/ 10/ 12 1015.2    2/ 6
90 E PT ARANSAS  0100   78 81   60/ 17/ 21 1014.3    4/ 6
35 NE PT MANSFLD 0100   78 81   90/ 16/ 19 1012.9    4/ 7
200 E PT ISABEL  0100   81 82   60/ 14/ 17 1012.2    4/ 6
$$